Weather in Novoshepelychi

Ukraine / Kyiv Region     51°25′14″N   30°01′11″E
temp.,
°C
wind,
m/s
gust,
m/s
humid.,
%
clouds,
%
prec.,
mm/h
press.,
hPa
HPBL,
m
14 august, sun
sun1400:00+20ene4128197 0.0 1014352
03:00+19ene4128044 0.0 1014294
06:00+18e4137434 0.0 1014284
09:00+23e5135850 0.0 1014565
12:00+29e67435 0.0 1013985
15:00+30e683994 0.0 10131777
18:00+27e6951100 0.0 1013952
21:00+22ene51467100 0.0 1013416
15 august, mon
mon1500:00+21ene41176100 0.0 1013353
03:00+20ene31076100 0.0 1012290
06:00+19ene3984100 0.6 1012206
09:00+20ne4977100 0.6 1012286
12:00+25ene5105196 0.0 1011584
15:00+30e7936100 0.0 10101430
18:00+26se51249100 0.0 1011512
21:00+25ne81547100 0.0 1009593
16 august, tue
tue1600:00+25ene61445100 0.0 1008597
03:00+24ene41148100 0.0 1008371
06:00+24ene51244100 0.0 1007386
09:00+24e51347100 0.0 1008456
12:00+23e41161100 0.0 1009530
15:00+28e6943100 0.0 10091585
18:00+22ese71466100 0.1 10101306
21:00+20e51474100 0.4 1010630
17 august, wed
wed1700:00+20e5117741 0.0 1010508
03:00+19e498983 0.1 1010399
06:00+18e41194100 0.4 1010461
09:00+18ene3891100 1.6 1010350
12:00+20ene257877 0.3 1010371
15:00+20ssw2383100 0.4 101080
18:00+19se2392100 2.5 101074
21:00+19ne4995100 9.1 1010250
18 august, thu
thu1800:00+19ene3794100 0.7 1010196
03:00+18nne239857 1.8 101087
06:00+17n229636 0.3 100942
09:00+21ne247510 0.3 1010255
12:00+26ne33505 0.0 1010762
15:00+29ene344210 0.0 10091247
18:00+28ne26486 0.0 10091194
21:00+22ne39677 0.0 1010157